Torna al catalogo

FENGYUN 1C DEB

LostPO
NORAD 36139·DEBRIS·🇨🇳 China

Lanciato May 10, 1999 da Taiyuan Satellite Launch Center

Loading…

Prossimi Passaggi (prossime 24 ore)

TLE

ObsoletoSource: Space-Track

Epoca: May 27, 2023, 03:57 UTC

1 36139U 99025DRL 23147.16509517  .00006654  00000-0  32024-2 0  9992
2 36139  97.9448 126.1065 0141720  94.9001 266.8371 14.13895355441268

Traccia FENGYUN 1C DEB in tempo reale con AllMySat

Download on the App Store